Regional Weather Roundup
Issued by NWS

Home | Current Version | Previous Version | Graphics & Text | Print | Product List | Glossary On
Versions: 1 2 3 4 5 6 7 8 9 10 11 12 13 14 15 16 17 18 19 20 21 22 23 24 25 26 27 28 29 30 31 32 33 34 35 36 37 38 39 40 41 42 43 44 45 46 47 48 49 50
000
ASUS44 KMEG 310700
RWRTN
TENNESSEE HOURLY STATE WEATHER ROUNDUP
NATIONAL WEATHER SERVICE MEMPHIS TN
200 AM CDT WED AUG 31 2016

TNZ002-004-019-021-049-052-054-088>092-310800-
WEST TENNESSEE

CITY           SKY/WX    TMP DP  RH WIND       PRES   REMARKS
MEMPHIS INTL   CLEAR     82  71  69 NE5       30.00S
NWS MEMPHIS      N/A     75 N/A N/A MISG        N/A
JACKSON        CLEAR     74  74 100 CALM      30.02S
DYERSBURG      MOCLDY    77  72  83 MISG      30.03S
UNION CITY     CLEAR     73  73 100 N5        30.03S
PARIS          CLEAR     72  72 100 N3        30.04S
LEXINGTON      CLEAR     72  72 100 CALM      30.01S
$$

TNZ008-025-027-028-033-062-065-066-310800-
NORTH MIDDLE TENNESSEE

CITY           SKY/WX    TMP DP  RH WIND       PRES   REMARKS
NASHVILLE      CLEAR     76  73  91 CALM      30.03S
CLARKSVILLE    CLEAR     76  72  87 CALM      30.03S
COOKEVILLE     CLEAR     72  70  94 CALM      30.04S
CROSSVILLE     CLEAR     68  67  96 CALM      30.10S
$$

TNZ061-075-076-078-094-096-097-310800-
SOUTH MIDDLE TENNESSEE

CITY           SKY/WX    TMP DP  RH WIND       PRES   REMARKS
SHELBYVILLE    CLEAR     72  72 100 CALM      30.05R
$$

TNZ017-018-042-046-047-310800-
NORTHEAST TENNESSEE

CITY           SKY/WX    TMP DP  RH WIND       PRES   REMARKS
TRI CITIES     PTCLDY    68  67  96 N3        30.08F
$$

TNZ012-013-036-069-073-074-310800-
CENTRAL EAST TENNESSEE

CITY           SKY/WX    TMP DP  RH WIND       PRES   REMARKS
KNOXVILLE      CLEAR     75  68  78 CALM      30.03F
OAK RIDGE      CLEAR     74  69  85 CALM      30.05F
GATLINBURG     CLEAR     70  66  88 CALM      30.04S
$$

TNZ083-085-099-310800-
SOUTHEAST TENNESSEE

CITY           SKY/WX    TMP DP  RH WIND       PRES   REMARKS
CHATTANOOGA    PTCLDY    75  68  78 CALM      30.03S
$$

SKY/WX REPORTED AS FAIR MEANS FEW OR NO CLOUDS BELOW
12 THOUSAND FEET.





USA.gov is the U.S. government's official web portal to all federal, state and local government web resources and services.